Regional Weather Roundup
Issued by NWS

Home | Current Version | Previous Version | Graphics & Text | Print | Product List | Glossary On
Versions: 1 2 3 4 5 6 7 8 9 10 11 12 13 14 15 16 17 18 19 20 21 22 23 24 25 26 27 28 29 30 31 32 33 34 35 36 37 38 39 40 41 42 43 44 45 46 47 48 49 50
000
ASUS44 KMEG 230700
RWRTN
TENNESSEE HOURLY STATE WEATHER ROUNDUP
NATIONAL WEATHER SERVICE MEMPHIS TN
200 AM CDT WED JUL 23 2014

TNZ002-004-019-021-049-052-054-088>092-230800-
WEST TENNESSEE

CITY           SKY/WX    TMP DP  RH WIND       PRES   REMARKS
MEMPHIS INTL   PTCLDY    77  69  76 CALM      30.06F
NWS MEMPHIS      N/A     74 N/A N/A MISG        N/A
JACKSON        CLEAR     74  71  91 CALM      30.07S
DYERSBURG      CLEAR     72  63  73 CALM      30.06F
UNION CITY     CLEAR     72  72 100 NW3       30.05S
PARIS          MOCLDY    70  68  94 CALM      30.07F
LEXINGTON      CLEAR     72  72 100 CALM      30.06F
SAVANNAH       CLEAR     72  72 100 CALM      30.08S
$$

TNZ008-025-027-028-033-062-065-066-230800-
NORTH MIDDLE TENNESSEE

CITY           SKY/WX    TMP DP  RH WIND       PRES   REMARKS
NASHVILLE      PTCLDY    75  72  90 S3        30.07F
CLARKSVILLE    CLEAR     77  73  87 SW5       30.06S
COOKEVILLE     MOCLDY    73  73 100 CALM      30.09F
CROSSVILLE     PTCLDY    71  67  87 CALM      30.15F
$$

TNZ061-075-076-078-094-096-097-230800-
SOUTH MIDDLE TENNESSEE

CITY           SKY/WX    TMP DP  RH WIND       PRES   REMARKS
FAYETTEVILLE   MOCLDY    70  70 100 CALM      30.10F
TULLAHOMA      CLOUDY    70  70 100 CALM      30.11F
WINCHESTER     MOCLDY    70  70 100 CALM      30.10F
MCMINNVILLE    PTCLDY    72  72 100 CALM      30.10F
COLUMBIA       PTCLDY    73  73 100 CALM      30.07S
SHELBYVILLE    PTCLDY    73  72  94 CALM      30.09F
$$

TNZ017-018-042-046-047-230800-
NORTHEAST TENNESSEE

CITY           SKY/WX    TMP DP  RH WIND       PRES   REMARKS
TRI CITIES     CLEAR     71  66  84 CALM      30.12S
ELIZABETHTON   SUNNY     66  64  94 CALM      30.13F
$$

TNZ012-013-036-069-073-074-230800-
CENTRAL EAST TENNESSEE

CITY           SKY/WX    TMP DP  RH WIND       PRES   REMARKS
KNOXVILLE      MOCLDY    74  70  87 W6        30.08F
OAK RIDGE      MOCLDY    76  72  87 CALM      30.10F
GATLINBURG     MOSUNNY   72  68  88 CALM      30.09S
$$

TNZ083-085-099-230800-
SOUTHEAST TENNESSEE

CITY           SKY/WX    TMP DP  RH WIND       PRES   REMARKS
CHATTANOOGA    CLEAR     73  70  90 CALM      30.10F
$$

SKY/WX REPORTED AS FAIR MEANS FEW OR NO CLOUDS BELOW
12 THOUSAND FEET.



USA.gov is the U.S. government's official web portal to all federal, state and local government web resources and services.